Powrót do katalogu

IRIDE-MS2-HEO-13

AktywnyNaukaSSO
NORAD 68985·PAYLOAD·🇮🇹 Italy

Wystrzelony May 3, 2026 z Vandenberg Space Force Base

Loading…

Następne Przeloty (najbliższe 24 godziny)

TLE

ŚwieżeSource: Space-Track

Epoka: Sep 14, 2026, 16:36 UTC

1 68985U 26100F   26257.69177150  .00002083  00000-0  21273-3 0  9994
2 68985  97.7241 153.4210 0002678 145.7474 214.3918 14.91667305 20045

Śledź IRIDE-MS2-HEO-13 w czasie rzeczywistym z AllMySat

Download on the App Store